Flag for Germany Weather past 2 weeks in Detmold, North Rhine-Westphalia, Germany

Now
58 °F

Fog.


Feels Like: 58 °F
Forecast: 56 / 77 °F
Wind: 1 mph from Northeast

Location: Bad Lippspringe

Current Time: Sep 15, 2014 at 6:27:58 AM

Latest Report: Sep 15, 2014 at 6:00 AM


Visibility: 4 mi

Pressure: 30.06 "Hg

Humidity: 93%

Dew point: 56 °F

Location of DetmoldLocation

Historic Weather in Detmold — Graph

°F

Detmold temperature yesterday

Maximum temperature yesterday: 69 °F (at 6:00 PM)
Minimum temperature yesterday: 53 °F (at 12:00 AM)
Average temperature yesterday: 60 °F

Past Weeks' High & Low Weather Summary

 TemperatureHumidityPressure
High79 °F (Sep 6, 3:00 PM)100% (Sep 3, 3:00 AM)30.27 "Hg (Sep 3, 3:00 AM)
Low44 °F (Sep 12, 5:00 AM)45% (Sep 6, 3:00 PM)29.85 "Hg (Sep 6, 6:00 PM)
Average59 °F84%30.09 "Hg
* Reported Aug 31 5:00 AM — Sep 15 5:00 AM, Detmold, Weather by CustomWeather, © 2014

Note: Actual official high and low records may vary slightly from our data, if they occured in-between our weather recording intervals... More about our weather records

Advertising

Detmold weather history for previous 24 hours

 ConditionsComfort  
Time TempWeatherWind HumidityBarometerVisibility
5:00 AM
Sep 15
57 °FOvercast.1 mph93%30.07 "Hg5 mi
4:00 AM58 °FOvercast.1 mph90%30.08 "Hg9 mi
3:00 AM55 °FOvercast.1 mph96%30.09 "Hg6 mi
2:00 AM53 °FOvercast.1 mph97%30.09 "Hg6 mi
1:00 AM53 °FPassing clouds.1 mph95%30.10 "Hg5 mi
12:00 AM53 °FPassing clouds.1 mph95%30.10 "Hg5 mi
11:00 PM
Sep 14
53 °FClear.2 mph94%30.10 "Hg5 mi
10:00 PM56 °FClear.1 mph89%30.10 "Hg7 mi
9:00 PM57 °FClear.1 mph89%30.10 "Hg9 mi
8:00 PM60 °FClear.1 mph80%30.10 "Hg12 mi
7:00 PM66 °FSunny.3 mph64%30.09 "Hg16 mi
6:00 PM69 °FScattered clouds.3 mph59%30.09 "Hg18 mi
5:00 PM68 °FPassing clouds.5 mph59%30.09 "Hg14 mi
4:00 PM67 °FPartly sunny.5 mph58%30.10 "Hg19 mi
3:00 PM68 °FPassing clouds.5 mph55%30.11 "Hg12 mi
2:00 PM66 °FPartly sunny.2 mph61%30.13 "Hg17 mi
1:00 PM67 °FOvercast.1 mph67%30.14 "Hg13 mi
12:00 PM65 °FOvercast.3 mph71%30.16 "Hg16 mi
11:00 AM62 °FOvercast.2 mph78%30.17 "Hg8 mi
10:00 AM60 °FDrizzle. Low clouds.2 mph91%30.17 "Hg3 mi
9:00 AM59 °FDrizzle. Low clouds.2 mph92%30.18 "Hg4 mi
8:00 AM57 °FDrizzle. Low clouds.1 mph96%30.18 "Hg2 mi
7:00 AM57 °FFog.1 mph95%30.17 "Hg2 mi
6:00 AM57 °FFog.1 mph96%30.18 "Hg2 mi
Weather by CustomWeather, © 2014

See weather overviewHow to use our weather pages